Regional Weather Roundup
Issued by NWS Goodland, KS

Home | Current Version | Previous Version | Text Only | Print | Product List | Glossary Off
Versions: 1 2 3 4 5 6 7 8 9 10 11 12 13 14 15 16 17 18 19 20 21 22 23 24 25 26 27 28 29 30 31 32 33 34 35 36 37 38 39 40 41 42 43 44 45 46 47 48 49 50

000
ASUS43 KGLD 030059
RWRGLD

GOODLAND FORECAST AREA HOURLY WEATHER ROUNDUP
NATIONAL WEATHER SERVICE GOODLAND KS
700 PM MDT WED SEP 02 2015

...OFFICIAL OBSERVATIONS...

CITY           SKY/WX    TMP DP  RH WIND       PRES   REMARKS
GOODLAND KS    PTCLDY    87  45  23 SW7       29.87S
HILL CITY KS   CLEAR     93  57  29 S6        29.79S
IMPERIAL NEB   PTCLDY    86  56  35 E8        29.86R
MCCOOK NEB     CLEAR     89  57  33 E7        29.82R
AKRON CO       CLEAR     87  39  18 SW3       29.96S
BURLINGTON CO  PTCLDY    84  44  24 NW5       29.93S
LIMON CO       PTCLDY    78  45  30 SE3       30.03S
$$

...UNOFFICIAL OBSERVATIONS...

CITY           SKY/WX    TMP DP  RH WIND       PRES   REMARKS
COLBY KS       PTCLDY    90  61  37 E6        29.86S
GOVE KS          N/A     93  32  11 MISG        N/A
LENORA KS        N/A     90  32  12 MISG        N/A
NORTON KS      CLEAR     88  57  35 CALM      29.79S
TRENTON NEB      N/A     87  32  14 E6          N/A
KIT CARSON CO    N/A     87  49  26 MISG        N/A
YUMA CO          N/A     88  52  28 CALM        N/A
$$


USA.gov is the U.S. government's official web portal to all federal, state and local government web resources and services.